Location: Stanford
(52.2833°N, 2.4333°W)
Time: 23:42:25
(UTC+00:00)

USA 281 - Pass Details

Date: 22 January 2021
Orbit: 1072 x 1086 km, 106.0° (Epoch: 26 February)

Event Time Altitude Azimuth Distance (km) Brightness Sun altitude
Exits shadow 19:48:43 43° 25° (NNE) 1,486 3.7 -28.6°
Drops below altitude 10° 19:53:58 10° 339° (NNW) 2,942 5.8 -29.4°
Sets 19:56:35 0° 334° (NNW) 3,900 6.6 -29.8°
